Weather in Solovyevo

Russia / Lipetsk Oblast     52°46′59″N   38°26′46″E
temp.,
°C
wind,
m/s
gust,
m/s
humid.,
%
clouds,
%
prec.,
mm/h
press.,
hPa
HPBL,
m
28 november, sun
sun2800:00+3s5129699 0.0 1005375
03:00+3s5119899 0.1 1005269
06:00+3s4999100 0.0 1005241
09:00+4ssw3899100 0.0 1007254
12:00+5ssw3898100 0.0 1008268
15:00+5ssw359693 0.0 1009181
18:00+5ssw3590100 0.0 1010116
21:00+5sse3692100 0.0 1010141
29 november, mon
mon2900:00+5se3890100 0.0 1010200
03:00+4se41196100 0.0 1009240
06:00+4ese51199100 0.0 1006307
09:00+6ese61698100 5.7 1002595
12:00+7sse81696100 4.1 999635
15:00+8s61398100 4.8 998537
18:00+9s61394100 0.1 996473
21:00+8se61498100 1.2 990521
30 november, tue
tue3000:00+10s101693100 12.1 985916
03:00+10s81592100 19.3 981781
06:00+8wsw111688100 1.8 9831100
09:00+3wsw121876100 1.9 9891095
12:00+2wsw111864100 0.0 9911318
15:00+2sw11176886 0.0 9921338
18:00+1sw101873100 0.0 9931492
21:00+1sw10177797 0.0 9921164
1 december, wed
wed100:00−1wsw8137679 0.0 9931000
03:00−1wsw7127396 0.0 9941015
06:00−1wsw7127590 0.0 9941049
09:00−1w7107699 0.1 9961042
12:00−2w81186100 0.3 997978
15:00−2wnw71170100 0.8 999991
18:00−3wnw611695 0.0 1002778
21:00−3w610785 0.0 1003617
2 december, thu
thu200:00−3wsw498024 0.0 1005437
03:00−3ssw5117598 0.0 1004381
06:00−2ssw7157898 0.0 1003614
09:00−2ssw71594100 0.1 1002580
12:000ssw81697100 1.3 1002753
15:00+2sw81686100 1.7 1002677
18:00+2sw81680100 0.0 1003659
21:00+1sw71594100 0.0 1004584